IZ1UQG-2 Weather Reports


Display with metric or nautical units.
time (UTC)temp
F
wind
direction
speed
MPH
gust
MPH
rain 1hr
in
rain 24hr
in
rain mn
in
humidity
%
barometer
mb
20260906163605 85 144 1.0 4.0 0.00 0.00 0.00 56 1018.8
20260906163205 85 123 1.0 6.0 0.00 0.00 0.00 56 1018.7
20260906162805 85 106 2.0 6.0 0.00 0.00 0.00 55 1018.7
20260906162405 85 103 2.0 5.0 0.00 0.00 0.00 55 1018.7
20260906162004 85 105 2.0 6.0 0.00 0.00 0.00 55 1018.8
20260906161605 85 102 4.0 7.0 0.00 0.00 0.00 55 1018.7
20260906160805 85 82 3.0 7.0 0.00 0.00 0.00 54 1018.6
20260906160404 86 57 2.0 5.0 0.00 0.00 0.00 54 1018.5
20260906160005 86 39 1.0 5.0 0.00 0.00 0.00 53 1018.5
20260906155605 86 70 2.0 8.0 0.00 0.00 0.00 53 1018.5
20260906155205 86 87 3.0 8.0 0.00 1.00 0.00 53 1018.5
20260906154804 86 91 3.0 8.0 0.00 1.00 0.00 53 1018.5
20260906154005 86 90 4.0 9.0 0.00 1.00 0.00 52 1018.5
20260906153605 86 89 4.0 10.0 0.00 1.00 0.00 51 1018.5
20260906153205 86 87 4.0 10.0 0.00 1.00 0.00 51 1018.6
20260906152005 86 82 4.0 8.0 0.00 1.00 0.00 52 1018.6
20260906151604 86 78 5.0 11.0 0.00 1.00 0.00 53 1018.6
20260906151205 86 80 6.0 11.0 0.00 1.00 0.00 53 1018.6
20260906150805 86 80 6.0 11.0 0.00 1.00 0.00 52 1018.6
20260906150404 86 76 4.0 10.0 0.00 1.00 0.00 52 1018.5
20260906150005 87 64 4.0 10.0 0.00 1.00 0.00 52 1018.7
20260906145205 86 79 5.0 11.0 0.00 1.00 0.00 53 1018.6
20260906144804 86 76 6.0 11.0 0.00 1.01 0.00 53 1018.7
20260906144404 86 81 6.0 11.0 0.00 1.01 0.00 52 1018.7
20260906144005 86 82 6.0 11.0 0.00 1.01 0.00 52 1018.8
20260906143605 86 79 5.0 12.0 0.00 1.01 0.00 51 1018.8
20260906143205 87 80 6.0 12.0 0.00 1.01 0.00 51 1018.8
20260906142804 86 83 8.0 12.0 0.00 2.01 0.00 51 1018.9
20260906142405 86 79 7.0 12.0 0.00 2.01 0.00 51 1018.8
20260906142006 86 82 6.0 12.0 0.00 2.01 0.00 51 1018.9
20260906141604 86 86 6.0 12.0 0.00 2.01 0.00 50 1018.9
20260906141205 86 82 6.0 12.0 0.00 2.01 0.00 50 1018.8
20260906140805 86 82 6.0 12.0 0.00 2.01 0.00 50 1018.8
20260906140405 86 89 6.0 10.0 0.00 2.01 0.00 51 1018.9
20260906140005 86 95 6.0 12.0 0.00 2.01 0.00 51 1018.9
20260906135604 86 92 7.0 12.0 0.00 2.02 0.00 51 1018.9
20260906135204 86 90 7.0 12.0 0.00 2.02 0.00 51 1019.0
20260906134805 86 86 7.0 12.0 0.00 2.02 0.00 51 1019.1
20260906134005 86 87 7.0 12.0 0.00 2.02 0.00 51 1019.1
20260906133605 86 88 7.0 12.0 0.00 2.02 0.00 51 1019.2
20260906133204 86 88 8.0 12.0 0.00 2.02 0.00 50 1019.2
20260906132405 85 77 8.0 13.0 0.00 2.02 0.00 52 1019.3
20260906132005 85 80 8.0 12.0 0.00 2.02 0.00 52 1019.3
20260906131605 85 84 7.0 12.0 0.00 2.02 0.00 51 1019.3
20260906131204 86 86 6.0 12.0 0.00 2.02 0.00 50 1019.3
20260906130404 86 79 6.0 12.0 0.00 2.02 0.00 50 1019.4
20260906130005 85 83 7.0 12.0 0.00 2.02 0.00 51 1019.5
20260906125605 85 84 8.0 12.0 0.00 2.02 0.00 50 1019.5
20260906125204 85 83 8.0 12.0 0.00 2.02 0.00 51 1019.6
20260906124805 84 83 8.0 12.0 0.00 2.02 0.00 51 1019.7
20260906124405 85 86 8.0 13.0 0.00 2.02 0.00 50 1019.7
20260906124005 85 85 8.0 13.0 0.00 2.02 0.00 50 1019.8
20260906123604 84 88 9.0 13.0 0.00 2.02 0.00 51 1019.7
20260906122804 85 88 7.0 11.0 0.00 3.02 0.00 50 1019.7
20260906122404 85 81 7.0 11.0 0.00 3.02 0.00 50 1019.7
20260906122005 85 80 7.0 12.0 0.00 3.02 0.00 51 1019.8
20260906121605 84 81 6.0 12.0 0.00 3.02 0.00 51 1019.8
20260906120804 84 88 7.0 11.0 0.00 4.02 0.00 51 1019.9
20260906120406 85 90 6.0 11.0 0.00 4.02 0.00 49 1019.8
20260906115605 86 88 5.0 10.0 0.00 5.04 0.00 48 1019.7
20260906115205 85 94 5.0 10.0 0.00 5.04 0.00 49 1019.8
20260906114404 85 83 5.0 10.0 0.00 5.04 0.00 49 1019.8
20260906114005 85 81 5.0 10.0 0.00 5.04 0.00 49 1019.9
20260906113604 86 81 4.0 9.0 0.00 5.04 0.00 48 1019.9
20260906113204 85 78 3.0 8.0 0.00 5.04 0.00 49 1020.0
20260906112805 85 74 3.0 8.0 0.00 5.04 0.00 48 1019.9
20260906112405 84 65 2.0 5.0 0.00 5.04 0.00 49 1020.1
20260906112005 85 18 2.0 5.0 0.00 5.04 0.00 48 1020.0
20260906111605 86 78 2.0 5.0 0.00 5.04 0.00 46 1020.0
20260906111205 85 94 2.0 5.0 0.00 5.04 0.00 46 1020.1
20260906110805 84 119 2.0 6.0 0.00 5.04 0.00 47 1020.2
20260906110405 84 119 2.0 6.0 0.00 6.04 0.00 47 1020.2
20260906105604 84 108 2.0 6.0 0.00 6.05 0.00 45 1020.3
20260906104804 83 103 3.0 6.0 0.00 6.05 0.00 44 1020.2
20260906104404 83 109 3.0 6.0 0.00 6.05 0.00 44 1020.4
20260906103604 83 119 2.0 6.0 0.00 6.05 0.00 44 1020.4
20260906103204 83 121 2.0 6.0 0.00 6.05 0.00 45 1020.4
20260906102804 83 109 3.0 6.0 0.00 6.05 0.00 46 1020.4
20260906102405 82 106 3.0 6.0 0.00 6.05 0.00 47 1020.5
20260906102005 82 105 3.0 6.0 0.00 6.05 0.00 46 1020.6
20260906101605 82 107 3.0 6.0 0.00 6.05 0.00 47 1020.5
20260906101205 82 108 2.0 6.0 0.00 6.05 0.00 47 1020.7
20260906100805 82 97 2.0 6.0 0.00 6.05 0.00 47 1020.9
20260906100405 82 85 2.0 6.0 0.00 6.05 0.00 46 1020.8
20260906095605 82 120 2.0 5.0 0.00 6.05 0.00 48 1020.8
20260906095204 82 130 2.0 5.0 0.00 6.05 0.00 48 1020.9
20260906094805 81 109 1.0 5.0 0.00 6.05 0.00 48 1021.0
20260906094405 81 101 1.0 4.0 0.00 6.05 0.00 49 1021.0
20260906094005 81 108 1.0 4.0 0.00 6.05 0.00 49 1021.1
20260906093604 80 95 2.0 4.0 0.00 6.05 0.00 50 1021.0
20260906093205 80 95 2.0 4.0 0.00 6.05 0.00 50 1021.1
20260906092805 80 127 1.0 4.0 0.00 6.05 0.00 49 1021.2
20260906092404 80 154 1.0 3.0 0.00 6.05 0.00 50 1021.2
20260906092006 79 162 1.0 4.0 0.00 6.05 0.00 50 1021.3
20260906091604 79 173 1.0 4.0 0.00 7.05 0.00 51 1021.3
20260906091204 79 244 1.0 3.0 0.00 7.05 0.00 52 1021.3
20260906090804 79 330 1.0 3.0 0.00 7.05 0.00 52 1021.4
20260906090405 78 347 1.0 3.0 0.00 7.05 0.00 53 1021.4
20260906090005 78 347 1.0 3.0 0.00 7.05 0.00 52 1021.4
20260906085605 77 341 2.0 3.0 0.00 7.05 0.00 53 1021.5
20260906085204 77 338 2.0 3.0 0.00 7.05 0.00 52 1021.4
20260906084004 76 356 1.0 3.0 0.00 7.05 0.00 55 1021.5
20260906083605 76 336 2.0 4.0 0.00 7.05 0.00 57 1021.5
20260906082406 74 338 1.0 3.0 0.00 8.06 0.00 58 1021.5
20260906081604 74 334 1.0 4.0 0.00 8.06 0.00 58 1021.6
20260906081205 74 318 1.0 4.0 0.00 8.06 0.00 59 1021.6
20260906080804 73 311 2.0 4.0 0.00 9.06 0.00 60 1021.6
20260906075606 73 345 1.0 4.0 0.00 9.06 0.00 59 1021.6
20260906075205 72 345 2.0 4.0 0.00 9.07 0.00 60 1021.6
20260906074804 72 341 3.0 5.0 0.00 9.07 0.00 61 1021.5
20260906074405 71 338 3.0 5.0 0.00 9.07 0.00 61 1021.6
20260906073204 71 338 2.0 4.0 0.00 9.07 0.00 61 1021.5
20260906072805 71 343 3.0 5.0 0.00 9.07 0.00 61 1021.4
20260906072005 71 349 3.0 6.0 0.00 9.07 0.00 60 1021.4
20260906071604 71 343 3.0 6.0 0.00 9.07 0.00 60 1021.4
20260906071205 71 343 3.0 6.0 0.00 9.07 0.00 60 1021.4
20260906070805 71 340 3.0 6.0 0.00 9.07 0.00 61 1021.4
20260906070404 71 346 3.0 6.0 0.00 9.07 0.00 61 1021.4
20260906070005 71 348 3.0 7.0 0.00 9.07 0.00 62 1021.4
20260906065604 71 353 3.0 7.0 0.00 9.07 0.00 61 1021.4
20260906065205 70 351 4.0 7.0 0.00 9.07 0.00 62 1021.4
20260906064804 70 355 3.0 6.0 0.00 9.07 0.00 63 1021.3
20260906064404 70 354 3.0 5.0 0.00 9.07 0.00 63 1021.3
20260906064005 70 343 3.0 6.0 0.00 9.07 0.00 63 1021.3
20260906063205 71 337 2.0 5.0 0.00 9.07 0.00 61 1021.1
20260906062804 71 345 1.0 3.0 0.00 9.07 0.00 62 1021.0
20260906062405 71 327 1.0 2.0 0.00 9.07 0.00 61 1021.1
20260906062005 71 281 1.0 3.0 0.00 9.07 0.00 60 1021.0
20260906061605 71 252 1.0 3.0 0.00 9.07 0.00 61 1020.9
20260906061204 71 249 1.0 3.0 0.00 9.07 0.00 61 1020.9
20260906060405 70 259 1.0 4.0 0.00 9.07 0.00 64 1020.7
20260906060005 70 270 1.0 4.0 0.00 9.07 0.00 64 1020.7
20260906055605 70 278 1.0 3.0 0.00 9.07 0.00 64 1020.7
20260906055204 70 250 2.0 5.0 0.00 9.07 0.00 65 1020.7
20260906054804 70 225 3.0 7.0 0.00 9.07 0.00 64 1020.6
20260906054404 69 221 4.0 7.0 0.00 9.07 0.00 63 1020.6
20260906054005 69 219 4.0 7.0 0.00 9.07 0.00 65 1020.5
20260906053204 68 243 3.0 5.0 0.00 9.07 0.00 65 1020.3
20260906052804 69 268 2.0 4.0 0.00 9.07 0.00 64 1020.3
20260906052404 69 271 2.0 4.0 0.00 9.07 0.00 65 1020.2
20260906052005 69 262 1.0 4.0 0.00 9.07 0.00 65 1020.1
20260906051605 69 251 2.0 5.0 0.00 9.07 0.00 66 1020.1
20260906051204 69 247 3.0 7.0 0.00 9.07 0.00 66 1020.0
20260906050805 68 239 4.0 9.0 0.00 9.07 0.00 67 1020.0
20260906050404 68 230 5.0 9.0 0.00 9.07 0.00 67 1020.0
20260906050005 68 224 6.0 9.0 0.00 9.07 0.00 67 1020.0
20260906045605 68 226 6.0 8.0 0.00 9.07 0.00 66 1020.0
20260906045204 69 228 4.0 8.0 0.00 9.07 0.00 66 1019.8
20260906044805 69 237 2.0 7.0 0.00 9.07 0.00 65 1019.7
20260906044005 69 225 3.0 5.0 0.00 9.07 0.00 66 1019.6
20260906043604 69 231 3.0 5.0 0.00 9.07 0.00 66 1019.6
20260906042804 69 241 3.0 6.0 0.00 9.07 0.00 65 1019.6
20260906042404 69 234 3.0 6.0 0.00 9.07 0.00 65 1019.4
20260906042004 69 236 2.0 4.0 0.00 9.07 0.00 65 1019.5
20260906041605 69 241 3.0 7.0 0.00 9.07 0.00 64 1019.4
20260906041204 69 233 4.0 8.0 0.00 9.07 0.00 65 1019.4
20260906040804 69 229 6.0 10.0 0.00 9.07 0.00 65 1019.4
20260906040404 69 230 6.0 10.0 0.00 9.07 0.00 65 1019.4
20260906040005 69 228 5.0 10.0 0.00 9.07 0.00 65 1019.5
20260906034805 69 222 6.0 8.0 0.00 9.07 0.00 65 1019.3
20260906034404 69 225 5.0 8.0 0.00 9.07 0.00 65 1019.3
20260906034005 69 229 4.0 7.0 0.00 9.07 0.00 65 1019.2
20260906033605 70 235 3.0 5.0 0.00 9.07 0.00 64 1019.2
20260906033205 70 239 2.0 5.0 0.00 9.07 0.00 62 1019.0
20260906032805 70 247 1.0 4.0 0.00 9.07 0.00 63 1019.1
20260906031205 71 264 2.0 5.0 0.00 9.07 0.00 61 1019.0
20260906030804 71 272 2.0 5.0 0.00 9.07 0.00 61 1019.1
20260906030404 71 259 3.0 5.0 0.00 9.07 0.00 61 1019.0
20260906030005 71 240 4.0 7.0 0.00 9.07 0.00 60 1018.9
20260906025604 71 240 5.0 7.0 0.00 9.07 0.00 61 1018.8
20260906025205 71 260 4.0 7.0 0.00 9.07 0.00 61 1018.9
20260906024804 70 266 4.0 10.0 0.00 9.07 0.00 64 1018.9
20260906024405 70 233 6.0 12.0 0.00 9.07 0.00 64 1018.9
20260906024004 70 219 8.0 12.0 0.00 9.07 0.00 64 1018.9
20260906023605 70 216 8.0 12.0 0.00 9.07 0.00 65 1018.8
20260906023204 70 215 7.0 9.0 0.00 9.07 0.00 65 1018.8
20260906022804 70 215 6.0 9.0 0.00 9.07 0.00 65 1018.8
20260906022004 70 225 2.0 8.0 0.00 9.07 0.00 64 1018.7
20260906021604 71 224 2.0 4.0 0.00 9.07 0.00 63 1018.7
20260906021205 71 251 2.0 4.0 0.00 9.07 0.00 61 1018.6
20260906020805 72 281 1.0 4.0 0.00 9.07 0.00 61 1018.5
20260906020404 71 270 1.0 4.0 0.00 9.07 0.00 61 1018.4
20260906020006 71 239 1.0 2.0 0.00 9.07 0.00 65 1018.4
20260906015604 71 176 1.0 3.0 0.00 9.07 0.00 64 1018.4
20260906014404 72 265 1.0 3.0 0.00 9.07 0.00 59 1018.2
20260906014005 72 247 2.0 3.0 0.00 9.07 0.00 57 1018.1
20260906013205 73 279 1.0 3.0 0.00 9.07 0.00 56 1018.1
20260906012805 72 278 1.0 3.0 0.00 9.07 0.00 59 1018.1
20260906012005 73 243 1.0 2.0 0.00 9.07 0.00 58 1017.9
20260906011204 72 249 1.0 3.0 0.00 9.07 0.00 59 1018.0
20260906010405 73 277 1.0 4.0 0.00 9.07 0.00 57 1017.9
20260906005604 73 286 2.0 5.0 0.00 9.07 0.00 57 1017.9
20260906005204 73 302 3.0 5.0 0.00 9.07 0.00 58 1018.0
20260906004805 73 309 3.0 5.0 0.00 9.07 0.00 58 1018.0
20260906004404 73 316 3.0 6.0 0.00 9.07 0.00 58 1017.9
20260906004006 73 324 4.0 6.0 0.00 9.07 0.00 58 1017.9
20260906003605 73 326 3.0 6.0 0.00 9.07 0.00 57 1018.0
20260906002805 73 317 3.0 5.0 0.00 9.07 0.00 59 1017.9
20260906002404 73 318 3.0 5.0 0.00 9.07 0.00 59 1017.9
20260906002005 73 314 2.0 5.0 0.00 9.07 0.00 60 1017.9
20260906001205 73 262 2.0 4.0 0.00 9.07 0.00 61 1017.9
20260906000805 73 270 2.0 4.0 0.00 9.07 0.00 60 1017.9
20260906000404 73 270 2.0 5.0 0.00 9.07 0.00 59 1017.9
20260906000005 73 284 3.0 5.0 0.00 9.07 0.00 59 1017.9
20260905235604 73 306 2.0 4.0 0.00 9.07 0.00 60 1018.1
20260905235204 73 338 2.0 4.0 0.00 9.07 0.00 60 1018.1
20260905234805 74 358 1.0 3.0 0.00 9.07 0.00 59 1018.0
20260905234404 74 353 1.0 4.0 0.00 9.07 0.00 58 1017.9
20260905234005 74 324 1.0 4.0 0.00 9.07 0.00 59 1018.0
20260905233604 74 309 2.0 4.0 0.00 9.07 0.00 58 1018.0
20260905233204 74 292 2.0 4.0 0.00 9.07 0.00 60 1018.0
20260905232804 75 278 2.0 4.0 0.00 9.07 0.00 58 1017.8
20260905232404 75 276 2.0 4.0 0.00 9.07 0.00 57 1017.8
20260905232005 74 277 2.0 4.0 0.00 9.07 0.00 58 1017.9
20260905231604 75 268 2.0 3.0 0.00 9.07 0.00 60 1017.9
20260905231204 74 259 2.0 3.0 0.00 9.07 0.00 59 1017.9
20260905230804 74 249 1.0 3.0 0.00 9.07 0.00 59 1018.0
20260905230405 73 240 1.0 3.0 0.00 9.07 0.00 63 1018.0
20260905230005 73 234 1.0 3.0 0.00 9.07 0.00 62 1018.0
20260905225604 73 243 2.0 5.0 0.00 9.07 0.00 63 1018.0
20260905224804 73 242 3.0 6.0 0.00 9.07 0.00 63 1018.0
20260905224404 73 227 4.0 6.0 0.00 9.07 0.00 64 1018.0
20260905224005 73 226 4.0 6.0 0.00 9.07 0.00 66 1018.0
20260905223604 73 228 3.0 6.0 0.00 9.07 0.00 66 1018.0
20260905223205 74 231 3.0 6.0 0.00 9.07 0.00 65 1017.8
20260905222804 74 234 3.0 5.0 0.00 9.07 0.00 64 1017.6
20260905222404 74 235 3.0 5.0 0.00 9.07 0.00 64 1017.7
20260905222005 74 234 3.0 6.0 0.00 9.07 0.00 65 1017.6
20260905221604 74 232 4.0 6.0 0.00 9.07 0.00 64 1017.6
20260905221205 74 235 4.0 6.0 0.00 9.07 0.00 64 1017.5
20260905220804 74 244 3.0 5.0 0.00 9.07 0.00 63 1017.5
20260905220404 74 255 2.0 5.0 0.00 9.07 0.00 64 1017.4
20260905220007 75 230 4.0 9.0 0.00 9.07 0.00 63 1017.4
20260905215604 75 222 5.0 10.0 0.00 9.07 9.07 63 1017.4
20260905214805 74 236 5.0 8.0 0.00 9.07 9.07 65 1017.4
20260905214405 75 233 4.0 8.0 0.00 9.07 9.07 64 1017.3
20260905214005 75 232 4.0 7.0 0.00 9.07 9.07 63 1017.3
20260905213205 74 225 5.0 8.0 0.00 9.07 9.07 66 1017.3
20260905212804 74 222 5.0 8.0 0.00 9.07 9.07 66 1017.3
20260905212404 74 220 4.0 7.0 0.00 9.07 9.07 66 1017.3
20260905212005 74 219 5.0 9.0 0.00 9.07 9.07 66 1017.0
20260905211604 74 226 5.0 9.0 0.00 9.07 9.07 68 1017.1
20260905211205 74 233 3.0 8.0 0.00 9.07 9.07 67 1017.0
20260905210404 76 252 1.0 4.0 0.00 9.07 9.07 64 1016.9
20260905210005 76 269 1.0 4.0 0.00 9.07 9.07 64 1016.8
20260905205604 76 303 2.0 3.0 0.00 9.07 9.07 64 1016.8
20260905205205 76 323 1.0 3.0 0.00 9.07 9.07 63 1016.7
20260905204804 77 332 1.0 3.0 0.00 9.07 9.07 61 1016.6
20260905204404 77 286 1.0 3.0 0.00 9.07 9.07 63 1016.7
20260905204005 77 273 1.0 4.0 0.00 9.07 9.07 63 1016.7
20260905203604 76 265 2.0 4.0 0.00 9.07 9.07 61 1016.6
20260905203205 76 251 2.0 4.0 0.00 9.07 9.07 65 1016.7
20260905202804 76 261 2.0 3.0 0.00 9.07 9.07 65 1016.6
20260905202404 76 284 2.0 3.0 0.00 9.07 9.07 63 1016.7
20260905202004 76 303 1.0 3.0 0.00 9.07 9.07 64 1016.6
20260905201604 76 310 2.0 3.0 0.00 9.07 9.07 65 1016.7
20260905201204 76 300 2.0 4.0 0.00 9.07 9.07 65 1016.7
20260905200804 76 250 2.0 5.0 0.00 9.07 9.07 66 1016.6
20260905200405 76 232 2.0 5.0 0.00 9.07 9.07 67 1016.6
20260905200004 76 240 1.0 4.0 0.00 9.07 9.07 66 1016.6
20260905195604 76 257 1.0 3.0 0.00 9.07 9.07 67 1016.6
20260905195204 76 256 1.0 3.0 0.00 9.07 9.07 67 1016.5
20260905194804 77 219 1.0 4.0 0.00 9.07 9.07 66 1016.4
20260905194405 77 214 2.0 4.0 0.00 9.07 9.07 66 1016.3
20260905193604 77 231 1.0 4.0 0.00 9.07 9.07 66 1016.2
20260905193205 78 221 0.0 1.0 0.00 9.07 9.07 66 1016.1
20260905192804 78 188 0.0 2.0 0.00 9.07 9.07 66 1016.1
20260905192404 78 202 1.0 5.0 0.00 9.07 9.07 66 1016.0
20260905191204 78 221 5.0 8.0 0.00 9.07 9.07 64 1015.9
20260905190804 78 217 5.0 8.0 0.00 9.07 9.07 64 1015.7
20260905190404 79 218 5.0 8.0 0.00 9.07 9.07 64 1015.6
20260905190004 79 223 5.0 7.0 0.00 9.07 9.07 63 1015.7
20260905185204 79 233 3.0 6.0 0.00 9.07 9.07 65 1015.4
20260905184805 79 226 4.0 7.0 0.00 9.07 9.07 66 1015.5
20260905184404 79 218 5.0 7.0 0.00 9.07 9.07 66 1015.4
20260905184005 79 215 4.0 7.0 0.00 9.07 9.07 66 1015.2
20260905183604 80 216 3.0 5.0 0.00 9.07 9.07 65 1015.2
20260905183205 80 226 3.0 5.0 0.00 9.07 9.07 65 1015.3
20260905182804 80 232 2.0 5.0 0.00 9.07 9.07 63 1015.1
20260905182404 80 235 3.0 5.0 0.00 9.07 9.07 66 1015.0
20260905182005 80 243 3.0 5.0 0.00 9.07 9.07 64 1015.0
20260905181604 80 255 2.0 4.0 0.00 9.07 9.07 64 1015.0
20260905181205 80 277 1.0 3.0 0.00 9.07 9.07 63 1014.8
20260905180804 80 308 1.0 4.0 0.00 9.07 9.07 63 1014.8
20260905180404 80 305 1.0 4.0 0.00 9.07 9.07 65 1014.7
20260905175605 80 327 3.0 7.0 0.00 9.07 9.07 66 1014.7
20260905174804 82 334 1.0 7.0 0.00 9.07 9.07 66 1014.6
20260905174404 82 215 0.0 3.0 0.00 9.07 9.07 64 1014.3
20260905174005 82 239 1.0 3.0 0.00 9.07 9.07 65 1014.4
20260905173604 82 241 1.0 3.0 0.00 9.07 9.07 64 1014.3
20260905173205 83 253 1.0 3.0 0.00 9.07 9.07 64 1014.2
20260905172405 83 240 0.0 2.0 0.00 9.07 9.07 62 1014.1
20260905172004 83 256 0.0 2.0 0.00 9.07 9.07 61 1014.0
20260905171605 84 265 0.0 2.0 0.00 9.07 9.07 61 1013.9
20260905171204 83 290 0.0 2.0 0.00 9.07 9.07 61 1013.8
20260905170804 83 293 1.0 4.0 0.00 9.07 9.07 60 1013.9
20260905170404 83 305 2.0 4.0 0.00 9.07 9.07 61 1014.0
20260905170004 83 319 2.0 4.0 0.00 9.07 9.07 61 1013.9
20260905165604 84 327 2.0 4.0 0.00 9.07 9.07 60 1013.9
20260905165204 84 351 0.0 3.0 1.00 9.07 9.07 59 1013.9
20260905164805 85 3 0.0 1.0 1.00 9.07 9.07 58 1013.8
20260905164405 85 358 0.0 1.0 1.00 9.07 9.07 58 1013.8
20260905164005 84 314 0.0 2.0 1.00 9.07 9.07 58 1013.9